Date String (YYYY-MM-DD hh:mm:ss) UTC,Instrument flags,Ambient pressure (hPa),Sample flow (lpm),Bypass flow (lpm),Sample temperature (°C),Ambient temperature (°C),ASC tube jacket temperature (°C),LED temperature (°C),Box temperature (°C),Sample RH (%),Span deviation,Mass concentration (μg/m³),Mass concentration (μg/m³),Mass concentration (μg/m³)
DateTimeUTC,F1_M11,P_M11,Q1_M11,Q2_M11,T1_M11,T2_M11,T3_M11,T4_M11,T5_M11,U1_M11,ZSPAN_M11,X0_M11,X2_M11,X1_M11
2022-02-06 19:00:00,,0834.3,5.00,0.00,22.8,22.3,00.0,31.8,24.6,10.7,0000.0,0006.01,0002.45,0001.97
2022-02-06 19:01:00,,0834.2,5.02,0.00,22.8,22.3,00.0,31.8,24.6,10.6,0000.0,0005.68,0002.48,0001.96
2022-02-06 19:02:00,,0834.2,4.99,0.00,22.9,22.2,00.0,31.8,24.7,11.1,0000.0,0005.60,0002.45,0001.95
2022-02-06 19:03:00,,0834.3,5.00,0.00,22.9,22.2,00.0,31.8,24.6,10.6,0000.0,0005.38,0002.46,0001.96
2022-02-06 19:04:00,,0834.2,5.00,0.00,22.8,22.2,00.0,31.8,24.6,10.3,0000.0,0005.33,0002.46,0001.96
2022-02-06 19:05:00,,0834.1,4.99,0.00,22.8,22.1,00.0,31.8,24.6,10.2,0000.0,0005.19,0002.43,0001.95
2022-02-06 19:06:00,,0834.1,5.00,0.00,22.8,22.1,00.0,31.8,24.6,10.6,0000.0,0005.93,0002.45,0001.94
2022-02-06 19:07:00,,0834.1,4.99,0.00,22.8,22.2,00.0,31.8,24.5,10.3,0000.0,0005.93,0002.49,0001.94
2022-02-06 19:08:00,,0834.0,5.01,0.00,22.8,22.2,00.0,31.8,24.5,10.7,0000.0,0006.22,0002.52,0001.94
2022-02-06 19:09:00,,0834.1,4.99,0.00,22.8,22.2,00.0,31.8,24.5,10.8,0000.0,0006.24,0002.51,0001.93
2022-02-06 19:10:00,,0834.0,5.01,0.00,22.8,22.2,00.0,31.8,24.5,10.6,0000.0,0006.43,0002.46,0001.92
2022-02-06 19:11:00,,0834.0,4.99,0.00,22.8,22.2,00.0,31.8,24.6,10.5,0000.0,0007.34,0002.44,0001.91
2022-02-06 19:12:00,,0834.0,5.00,0.00,22.8,22.2,00.0,31.8,24.6,10.5,0000.0,0007.16,0002.38,0001.89
2022-02-06 19:13:00,,0834.0,5.01,0.00,22.8,22.2,00.0,31.8,24.6,10.6,0000.0,0007.05,0002.34,0001.87
2022-02-06 19:14:00,,0834.0,4.99,0.00,22.8,22.2,00.0,31.8,24.5,10.4,0000.0,0007.03,0002.34,0001.86
2022-02-06 19:15:00,,0834.0,4.99,0.00,22.8,22.2,00.0,31.8,24.5,10.4,0000.0,0006.94,0002.32,0001.85
2022-02-06 19:16:00,,0834.0,5.01,0.00,22.8,22.2,00.0,31.8,24.5,10.2,0000.0,0007.22,0002.35,0001.84
2022-02-06 19:17:00,,0834.0,4.98,0.00,22.8,22.2,00.0,31.8,24.5,10.2,0000.0,0006.72,0002.32,0001.81
2022-02-06 19:18:00,,0834.0,5.01,0.00,22.8,22.2,00.0,31.8,24.5,09.8,0000.0,0005.55,0002.23,0001.79
2022-02-06 19:19:00,,0833.9,5.00,0.00,22.7,22.1,00.0,31.8,24.5,09.8,0000.0,0006.79,0002.17,0001.77
2022-02-06 19:20:00,,0834.0,4.99,0.00,22.7,22.1,00.0,31.8,24.4,09.9,0000.0,0006.86,0002.17,0001.74
2022-02-06 19:21:00,,0833.9,5.02,0.00,22.7,22.1,00.0,31.7,24.4,09.9,0000.0,0006.79,0002.15,0001.70
2022-02-06 19:22:00,,0833.9,4.99,0.00,22.7,22.0,00.0,31.7,24.3,10.0,0000.0,0005.72,0002.07,0001.67
2022-02-06 19:23:00,,0833.9,5.02,0.00,22.6,22.0,00.0,31.7,24.3,09.9,0000.0,0006.58,0002.10,0001.63
2022-02-06 19:24:00,,0833.9,4.99,0.00,22.6,22.0,00.0,31.7,24.3,10.2,0000.0,0006.70,0002.10,0001.61
2022-02-06 19:25:00,,0834.0,5.00,0.00,22.6,22.0,00.0,31.7,24.3,10.5,0000.0,0006.47,0002.04,0001.58
2022-02-06 19:26:00,,0833.9,4.99,0.00,22.6,22.0,00.0,31.7,24.2,09.9,0000.0,0006.36,0001.99,0001.56
2022-02-06 19:27:00,,0833.9,5.01,0.00,22.6,21.9,00.0,31.7,24.2,09.9,0000.0,0006.11,0001.95,0001.55
2022-02-06 19:28:00,,0833.8,4.99,0.00,22.6,21.9,00.0,31.7,24.2,10.1,0000.0,0005.89,0001.89,0001.53
2022-02-06 19:29:00,,0833.8,5.02,0.00,22.6,21.9,00.0,31.7,24.2,10.2,0000.0,0005.85,0001.88,0001.51
2022-02-06 19:30:00,,0833.8,4.99,0.00,22.5,22.0,00.0,31.7,24.2,10.1,0000.0,0003.89,0001.85,0001.50
2022-02-06 19:31:00,,0833.8,5.01,0.00,22.6,22.0,00.0,31.6,24.2,10.0,0000.0,0003.69,0001.79,0001.49
2022-02-06 19:32:00,,0833.7,5.00,0.00,22.6,22.0,00.0,31.6,24.3,10.4,0000.0,0003.65,0001.78,0001.49
2022-02-06 19:33:00,,0833.7,4.99,0.00,22.6,22.0,00.0,31.6,24.3,10.6,0000.0,0003.81,0001.85,0001.49
2022-02-06 19:34:00,,0833.7,5.00,0.00,22.6,22.0,00.0,31.6,24.3,10.1,0000.0,0002.92,0001.83,0001.49
2022-02-06 19:35:00,,0833.7,5.02,0.00,22.5,22.0,00.0,31.6,24.2,10.4,0000.0,0002.75,0001.84,0001.49
2022-02-06 19:36:00,,0833.7,4.99,0.00,22.5,22.0,00.0,31.6,24.2,10.3,0000.0,0002.88,0001.87,0001.50
2022-02-06 19:37:00,,0833.7,5.00,0.00,22.5,22.0,00.0,31.6,24.2,09.8,0000.0,0003.97,0001.88,0001.49
2022-02-06 19:38:00,,0833.7,5.01,0.00,22.5,22.0,00.0,31.6,24.3,09.9,0000.0,0004.08,0001.85,0001.48
2022-02-06 19:39:00,,0833.7,4.99,0.00,22.5,22.0,00.0,31.6,24.3,10.0,0000.0,0004.18,0001.85,0001.48
2022-02-06 19:40:00,,0833.7,4.99,0.00,22.5,22.0,00.0,31.6,24.3,10.2,0000.0,0004.18,0001.83,0001.46
2022-02-06 19:41:00,,0833.7,5.01,0.00,22.6,22.0,00.0,31.6,24.3,10.2,0000.0,0004.13,0001.79,0001.45
2022-02-06 19:42:00,,0833.7,5.00,0.00,22.6,22.0,00.0,31.6,24.3,10.1,0000.0,0004.31,0001.80,0001.44
2022-02-06 19:43:00,,0833.7,4.99,0.00,22.6,22.0,00.0,31.6,24.3,10.2,0000.0,0004.26,0001.79,0001.44
2022-02-06 19:44:00,,0833.7,5.00,0.00,22.5,22.0,00.0,31.6,24.3,10.2,0000.0,0004.94,0001.74,0001.45
2022-02-06 19:45:00,,0833.7,5.00,0.00,22.5,21.9,00.0,31.6,24.3,10.2,0000.0,0004.92,0001.72,0001.45
2022-02-06 19:46:00,,0833.7,4.99,0.00,22.6,21.9,00.0,31.6,24.3,10.1,0000.0,0006.03,0001.67,0001.44
2022-02-06 19:47:00,,0833.8,5.00,0.00,22.6,22.0,00.0,31.6,24.3,10.1,0000.0,0006.03,0001.65,0001.43
2022-02-06 19:48:00,,0833.7,5.02,0.00,22.6,22.0,00.0,31.6,24.4,10.4,0000.0,0004.95,0001.64,0001.43
2022-02-06 19:49:00,,0833.7,5.00,0.00,22.6,22.0,00.0,31.6,24.4,10.4,0000.0,0004.83,0001.67,0001.43
2022-02-06 19:50:00,,0833.7,4.99,0.00,22.6,22.1,00.0,31.6,24.3,10.5,0000.0,0004.72,0001.66,0001.42
2022-02-06 19:51:00,,0833.7,5.01,0.00,22.6,22.1,00.0,31.6,24.3,10.3,0000.0,0004.68,0001.68,0001.44
2022-02-06 19:52:00,,0833.6,4.99,0.00,22.6,22.1,00.0,31.6,24.4,09.9,0000.0,0004.77,0001.72,0001.46
2022-02-06 19:53:00,,0833.7,5.00,0.00,22.6,22.1,00.0,31.6,24.4,10.6,0000.0,0004.69,0001.77,0001.49
2022-02-06 19:54:00,,0833.6,5.00,0.00,22.6,22.1,00.0,31.6,24.4,10.4,0000.0,0004.68,0001.77,0001.50
2022-02-06 19:55:00,,0833.6,5.01,0.00,22.6,22.1,00.0,31.6,24.3,10.3,0000.0,0004.04,0001.80,0001.52
2022-02-06 19:56:00,,0833.6,4.99,0.00,22.6,22.1,00.0,31.6,24.3,10.1,0000.0,0003.95,0001.85,0001.56
2022-02-06 19:57:00,,0833.6,5.02,0.00,22.6,22.1,00.0,31.6,24.3,10.0,0000.0,0002.87,0001.87,0001.58
2022-02-06 19:58:00,,0833.6,4.99,0.00,22.6,22.0,00.0,31.6,24.3,10.2,0000.0,0002.74,0001.93,0001.60
2022-02-06 19:59:00,,0833.6,4.99,0.00,22.6,22.0,00.0,31.6,24.3,10.5,0000.0,0002.89,0001.98,0001.62
